Skip Navigation Links weather.gov 
NOAA logo-Select to go to the NOAA homepage NDBC Title GraphicClick to go to NDBC home page   Select to go to the NWS homepage
Home About Us Contact Us
 
 
    
    Station List

 Data Access
    Mobile Access
    Classic Maps
         Recent
         DART®
    Obs Search
    Ship Obs Report
    BuoyCAMs
    TAO
    DODS
    OceanSITES
    HF Radar
    OSMC
    Dial-A-Buoy
    RSS Feeds Image indicating link to RSS feed access page
    Web Widget
    Web Data Guide
    Maintenance Schedule
    Station Status Report

 Program Info
    TAO
    DART®
    IOOS®

 Publications
    NDBC PEA
    NDBC FONSI
    NDBC DQC Handbook

 Visitor Information
 
USA.gov is the U.S. government's official web portal to all federal, state and local government web resources and services.

Hurricane Symbol Storm Special! View the latest observations near Atlantic Tropical Storm Sebastien.

Station EREP1 - 9063038 - Erie Image indicating link to RSS feed of recent meteorological observations for station EREP1

Owned and maintained by NOAA's National Ocean Service
C-MAN Station
42.172 N 80.098 W (42°10'19" N 80°5'51" W)

Site elevation: 177 m above mean sea level
Anemometer height: 10.7 m above site elevation

Search And Rescue (SAR) Data

Meteorological Observations from Nearby Stations and Ships Image indicating link to RSS feed of recent meteorological observations near station EREP1

Station EREP1
Large icon indicates selected station.
yellow diamond Stations with recent data
red diamond Stations with no data in last 8 hours
     (24 hours for tsunami stations)


Conditions at EREP1 as of
(5:30 pm EST)
2230 GMT on 11/22/2019:
     

Click on the graph icon in the table below to see a time series plot of the last five days of that observation.

5-day plot - Wind Direction Wind Direction (WDIR): NW ( 310 deg true )
5-day plot - Wind Speed Wind Speed (WSPD): 16 kts
5-day plot - Wind Gust Wind Gust (GST): 19 kts
5-day plot - Wind Speed at 10 Meters Wind Speed at 10 meters (WSPD10M): 16 kts
5-day plot - Wind Speed at 10 Meters Wind Speed at 20 meters (WSPD20M): 17 kts
5-day plot - Wind Speed, Wind Gust and Atmospheric Pressure Combined plot of Wind Speed, Gust, and Air Pressure
NOS Water Level Observation Network Water Level
Previous observations
5-day plot - Wind Direction 5-day plot - Wind Speed 5-day plot - Wind Gust 5-day plot - Wave Height 5-day plot - Dominant Wave Period 5-day plot - Average Period 5-day plot - Mean Wave Direction 5-day plot - Atmospheric Pressure 5-day plot - Pressure Tendency 5-day plot - Air Temperature 5-day plot - Water Temperature 5-day plot - Dew Point 5-day plot - Salinity 5-day plot - Visibility 5-day plot - Tide (above MLLW)
MM DD TIME
(EST)
WDIR WSPD
kts
GST
kts
WVHT
ft
DPD
sec
APD
sec
MWD PRES
in
PTDY
in
ATMP
°F
WTMP
°F
DEWP
°F
SAL
psu
VIS
nmi
TIDE
ft
1122 5:24 pmWNW 17 20------------
1122 5:18 pmWNW 17 20------------
1122 5:12 pm NW 16 20------------
1122 5:06 pm NW 16 20------------
1122 5:00 pm NW 16 19------------
1122 4:54 pm NW 17 22------------
1122 4:48 pm NW 17 21------------
1122 4:42 pm NW 17 21------------
1122 4:36 pm NW 17 22------------
1122 4:30 pmWNW 18 23------------
1122 4:24 pmWNW 18 23------------
1122 4:18 pmWNW 16 24------------
1122 4:12 pmWNW 20 24------------
1122 4:06 pm NW 19 24------------
1122 4:00 pm NW 19 24------------
1122 3:54 pmWNW 19 25------------
1122 3:48 pm NW 19 25------------
1122 3:42 pmWNW 20 23------------
1122 3:36 pmWNW 17 22------------
1122 3:30 pm NW 16 22------------
1122 3:24 pm NW 16 22------------
1122 3:18 pm NW 21 25------------
1122 3:12 pm NW 21 25------------
1122 3:06 pm NW 22 26------------
1122 3:00 pm NW 21 24------------
1122 2:54 pm NW 19 26------------
1122 2:48 pm NW 19 26------------
1122 2:42 pm NW 22 26------------
1122 2:36 pm NW 22 26------------
1122 2:30 pm NW 22 25------------
1122 2:24 pm NW 22 25------------
1122 2:18 pm NW 21 25------------
1122 2:12 pm NW 21 25------------
1122 2:06 pm NW 23 25------------
1122 2:00 pm NW 23 25------------
1122 1:54 pmWNW 18 25------------
1122 1:48 pmWNW 18 25------------
1122 1:42 pmWNW 22 26------------
1122 1:36 pmWNW 21 27------------
1122 1:30 pmWNW 17 29------------
1122 1:24 pmWNW 17 29------------
1122 1:18 pmWNW 19 26------------
1122 1:12 pmWNW 20 26------------
1122 1:06 pmWNW 19 26------------
1122 1:00 pmWNW 23 26------------
112212:54 pm NW 21 24------------
112212:48 pm NW 21 24------------
112212:42 pm NW 21 25------------
112212:36 pm NW 20 25------------
112212:30 pm NW 24 27------------
112212:24 pm NW 22 27------------
112212:18 pm NW 19 25------------
112212:12 pm NW 20 26------------
112212:06 pm NW 20 26------------
112212:00 pm NW 21 25------------
112211:54 am NW 24 29------------
112211:48 am NW 24 29------------
112211:42 am NW 21 25------------
112211:36 am NW 21 28------------
112211:30 am NW 21 28------------
112211:24 am NW 24 27------------
112211:18 amWNW 24 27------------
112211:12 amWNW 22 26------------
112211:06 amWNW 20 25------------
112211:00 amWNW 20 26------------
112210:54 amWNW 23 26------------
112210:48 am NW 20 22------------
112210:42 am NW 20 24------------
112210:36 am NW 20 24------------
112210:30 am NW 22 27------------
112210:24 am NW 22 27------------
112210:18 am NW 24 29------------
112210:12 am NW 24 29------------
112210:06 am NW 24 27------------
112210:00 amWNW 19 29------------
1122 9:54 amWNW 19 29------------
1122 9:48 amWNW 18 27------------
1122 9:42 amWNW 23 29------------
1122 9:36 amWNW 21 28------------
1122 9:30 amWNW 21 29------------
1122 9:24 amWNW 26 29------------
1122 9:18 am NW 25 29------------
1122 9:12 am NW 22 27------------
1122 9:06 amWNW 25 31------------
1122 9:00 am NW 26 31------------
1122 8:54 am NW 26 31------------
1122 8:48 am NW 24 30------------
1122 8:42 am NW 24 30------------
1122 8:36 am NW 25 29------------
1122 8:30 am NW 23 28------------
1122 8:24 am NW 23 28------------
1122 8:18 am NW 24 31------------
1122 8:12 am NW 24 29------------
1122 8:06 am NW 26 30------------
1122 8:00 am NW 25 30------------
1122 7:54 am NW 23 29------------
1122 7:48 am NW 27 32------------
1122 7:42 am NW 25 29------------
1122 7:36 am NW 25 29------------
1122 7:30 am NW 24 29------------
1122 7:24 am NW 23 28------------
1122 7:18 am NW 23 28------------
1122 7:12 am NW 24 28------------
1122 7:06 am NW 26 29------------
1122 7:00 am NW 23 25------------
1122 6:54 amWNW 22 28------------
1122 6:48 amWNW 23 29------------
1122 6:42 amWNW 23 28------------
1122 6:36 amWNW 24 26------------
1122 6:30 am NW 24 30------------
1122 6:24 am NW 24 29------------
1122 6:18 am NW 24 29------------
1122 6:12 am NW 23 26------------
1122 6:06 amWNW 22 26------------
1122 6:00 amWNW 23 26------------
1122 5:54 amWNW 23 26------------
1122 5:48 amWNW 23 27------------
1122 5:42 amWNW 22 26------------
1122 5:36 amWNW 22 26------------
1122 5:30 amWNW 22 26------------
1122 5:24 amWNW 22 26------------
1122 5:18 amWNW 22 26------------
1122 5:12 am NW 20 25------------
1122 5:06 am NW 22 25------------
1122 5:00 am NW 22 26------------
1122 4:54 am W 16 24------------
1122 4:48 am W 16 24------------
1122 4:42 am W 16 22------------
1122 4:36 am W 14 21------------
1122 4:30 am W 16 21------------
1122 4:24 am W 18 24------------
1122 4:18 am W 18 25------------
1122 4:12 am W 15 24------------
1122 4:06 am W 15 20------------
1122 4:00 am W 18 25------------
1122 3:48 am W 21 28------------
1122 3:42 am W 21 28------------
1122 3:36 am W 18 24------------
1122 3:30 am W 17 21------------
1122 3:24 am W 13 20------------
1122 3:18 am W 18 23------------
1122 3:12 am W 15 21------------
1122 3:06 amWSW 13 21------------
1122 3:00 amWSW 13 21------------
1122 2:54 amWSW 12 22------------
1122 2:48 amWSW 12 22------------
1122 2:42 amWSW 12 18------------
1122 2:36 amWSW 14 24------------
1122 2:30 amWSW 14 21------------
1122 2:24 amWSW 14 21------------
1122 2:18 amWSW 14 25------------
1122 2:12 amWSW 13 20------------
1122 2:06 amWSW 13 20------------
1122 2:00 amWSW 11 18------------
1122 1:54 amWSW 11 18------------
1122 1:48 amWSW 13 20------------
1122 1:42 amWSW 14 19------------
1122 1:36 amWSW 14 21------------
1122 1:30 amWSW 13 20------------
1122 1:24 amWSW 14 23------------
1122 1:18 amWSW 11 25------------
1122 1:12 amWSW 11 25------------
1122 1:06 amWSW 16 26------------
1122 1:00 amWSW 16 26------------
112212:54 amWSW 15 23------------
112212:48 amWSW 15 24------------
112212:36 amWSW 18 25------------
112212:30 am W 16 20------------
112212:24 am W 16 20------------
112212:18 amWSW 9 19------------
112212:12 am SW 11 18------------
112212:06 am SW 11 18------------
112212:00 am SW 12 19------------
112111:54 pm SW 12 19------------
112111:48 pm SW 12 20------------
112111:42 pm SW 9 17------------
112111:36 pm SW 10 15------------
112111:30 pm SW 10 15------------
112111:24 pm SW 7 18------------
112111:18 pm SW 7 18------------
112111:12 pm SW 11 18------------
112111:06 pm SW 11 18------------
112111:00 pm SW 14 25------------
112110:54 pm SW 12 23------------
112110:48 pm SW 17 26------------
112110:42 pmSSW 11 18------------
112110:36 pmSSW 11 18------------
112110:30 pm SW 12 21------------
112110:24 pmSSW 12 22------------
112110:18 pm SW 11 24------------
112110:12 pm SW 14 21------------
112110:06 pm SW 14 20------------
112110:00 pm SW 11 17------------
1121 9:54 pm SW 18 26------------
1121 9:48 pm SW 18 18------------
1121 9:42 pm SW 11 18------------
1121 9:36 pm SW 11 22------------
1121 9:30 pm SW 11 19------------
1121 9:24 pm SW 9 19------------
1121 9:18 pm SW 7 20------------
1121 9:12 pm SW 7 20------------
1121 9:06 pm SW 11 16------------
1121 9:00 pm SW 11 21------------
1121 8:54 pm SW 12 20------------
1121 8:48 pm SW 12 24------------
1121 8:42 pmSSW 10 20------------
1121 8:36 pm SW 12 26------------
1121 8:30 pmSSW 11 22------------
1121 8:24 pmSSW 12 21------------
1121 8:18 pm SW 9 16------------
1121 8:12 pm SW 9 16------------
1121 8:06 pm SW 14 25------------
1121 8:00 pm SW 15 24------------
1121 7:54 pmSSW 15 25------------
1121 7:48 pmSSW 13 19------------
1121 7:42 pm SW 13 21------------
1121 7:36 pm SW 12 20------------
1121 7:30 pm SW 10 23------------
1121 7:24 pm SW 12 24------------
1121 7:18 pm SW 12 24------------
1121 7:12 pm SW 11 21------------
1121 7:06 pmSSW 12 20------------
1121 7:00 pmSSW 12 20------------
1121 6:54 pm SW 14 22------------
1121 6:48 pmSSW 12 20------------
1121 6:42 pmSSW 11 22------------
1121 6:36 pmSSW 11 22------------
1121 6:30 pmSSW 13 21------------
1121 6:24 pmSSW 14 25------------
1121 6:18 pmSSW 14 25------------
1121 6:12 pm SW 10 16------------
1121 6:06 pm S 9 14------------
1121 6:00 pmSSW 10 17------------
1121 5:54 pmSSW 10 17------------

Description of Measurements

Links which are specific to this station are listed below:

Real Time Data in tabular form for the last forty-five days.

Historical Data & Climatic Summaries for quality controlled data for the current month, previous months, and previous years.